This is the latest recevied weather packets stored in our database for station/object IU0SZS-10. If no packets are shown the sender has not sent any weather packets the latest 10 day(s).
| Time | Temp. | Humidity | Pressure | Rain* | Wind** | Luminosity | Snow |
|---|---|---|---|---|---|---|---|
| 1777495418 | 12.78° C | 68% | 917.5 hPa | - | - | - | - |
| 1777494518 | 13.33° C | 65% | 917.5 hPa | - | - | - | - |
| 1777493618 | 13.33° C | 65% | 917.3 hPa | - | - | - | - |
| 1777492718 | 13.33° C | 66% | 917.3 hPa | - | - | - | - |
| 1777491818 | 13.33° C | 65% | 917.2 hPa | - | - | - | - |
| 1777490913 | 13.33° C | 65% | 917.1 hPa | - | - | - | - |
| 1777490013 | 13.33° C | 67% | 916.9 hPa | - | - | - | - |
| 1777489156 | 13.89° C | 65% | 916.7 hPa | - | - | - | - |
| 1777489113 | 13.89° C | 65% | 916.7 hPa | - | - | - | - |
| 1777488213 | 14.44° C | 65% | 916.7 hPa | - | - | - | - |
| 1777487313 | 14.44° C | 63% | 916.7 hPa | - | - | - | - |
| 1777486413 | 15° C | 63% | 916.5 hPa | - | - | - | - |
| 1777485512 | 15° C | 61% | 916.1 hPa | - | - | - | - |
| 1777484645 | 15.56° C | 59% | 916.1 hPa | - | - | - | - |
| 1777484612 | 15.56° C | 59% | 916.1 hPa | - | - | - | - |
| 1777483712 | 16.67° C | 55% | 915.9 hPa | - | - | - | - |
| 1777482812 | 18.33° C | 49% | 915.9 hPa | - | - | - | - |
| 1777481912 | 20° C | 42% | 915.9 hPa | - | - | - | - |
| 1777481012 | 21.11° C | 36% | 915.8 hPa | - | - | - | - |
| 1777480111 | 20.56° C | 22% | 915.7 hPa | - | - | - | - |
| 1777479211 | 21.67° C | 21% | 915.8 hPa | - | - | - | - |
| 1777478354 | 21.67° C | 21% | 915.8 hPa | - | - | - | - |
| 1777478311 | 21.67° C | 21% | 915.8 hPa | - | - | - | - |
| 1777477411 | 19.44° C | 23% | 915.9 hPa | - | - | - | - |
| 1777476511 | 20° C | 21% | 915.9 hPa | - | - | - | - |
* Rain since midnight (hover to see other rain measurements)
** Current wind speed in m/s (hover to see current wind gust speed)